| time (UTC) | temp F | wind direction | speed knots | gust knots | rain 1hr in | rain 24hr in | rain mn in | humidity % | barometer mb |
| 20260505065631 | 60 | 27 | 7.0 | 9.6 | 0.00 | 0.00 | 0.00 | 52 | 1009.5 |
| 20260505065136 | 60 | 27 | 7.8 | 10.4 | 0.00 | 0.00 | 0.00 | 52 | 1009.4 |
| 20260505064700 | 60 | 27 | 6.1 | 12.2 | 0.00 | 0.00 | 0.00 | 51 | 1009.4 |
| 20260505064123 | 61 | 27 | 7.0 | 12.2 | 0.00 | 0.00 | 0.00 | 51 | 1009.4 |
| 20260505063627 | 61 | 27 | 5.2 | 11.3 | 0.00 | 0.00 | 0.00 | 51 | 1009.2 |
| 20260505063132 | 61 | 27 | 7.8 | 11.3 | 0.00 | 0.00 | 0.00 | 50 | 1009.1 |
| 20260505062656 | 61 | 27 | 4.3 | 9.6 | 0.00 | 0.00 | 0.00 | 50 | 1009.1 |
| 20260505062139 | 61 | 27 | 4.3 | 10.4 | 0.00 | 0.00 | 0.00 | 50 | 1009.0 |
| 20260505061624 | 61 | 27 | 5.2 | 10.4 | 0.00 | 0.00 | 0.00 | 50 | 1009.0 |
| 20260505061127 | 61 | 27 | 4.3 | 14.8 | 0.00 | 0.00 | 0.00 | 50 | 1008.8 |
| 20260505060633 | 61 | 27 | 7.0 | 14.8 | 0.00 | 0.00 | 0.00 | 50 | 1008.8 |
| 20260505060137 | 62 | 27 | 8.7 | 18.2 | 0.00 | 0.00 | 0.00 | 49 | 1008.7 |
| 20260505055625 | 62 | 27 | 8.7 | 18.2 | 0.00 | 0.00 | 0.00 | 47 | 1008.5 |
| 20260505055129 | 62 | 27 | 6.1 | 12.2 | 0.00 | 0.00 | 0.00 | 46 | 1008.4 |
| 20260505054634 | 63 | 27 | 5.2 | 11.3 | 0.00 | 0.00 | 0.00 | 46 | 1008.3 |
| 20260505054158 | 63 | 27 | 7.8 | 13.9 | 0.00 | 0.00 | 0.00 | 45 | 1008.3 |
| 20260505053622 | 63 | 27 | 8.7 | 13.0 | 0.00 | 0.00 | 0.00 | 45 | 1008.3 |
| 20260505053125 | 64 | 27 | 6.1 | 14.8 | 0.00 | 0.00 | 0.00 | 43 | 1008.2 |
| 20260505052630 | 64 | 27 | 7.8 | 14.8 | 0.00 | 0.00 | 0.00 | 42 | 1008.1 |
| 20260505052134 | 65 | 27 | 3.5 | 10.4 | 0.00 | 0.00 | 0.00 | 41 | 1008.1 |
| 20260505051639 | 65 | 27 | 7.0 | 10.4 | 0.00 | 0.00 | 0.00 | 41 | 1008.1 |
| 20260505051143 | 65 | 27 | 4.3 | 9.6 | 0.00 | 0.00 | 0.00 | 40 | 1008.1 |
| 20260505050627 | 65 | 27 | 5.2 | 10.4 | 0.00 | 0.00 | 0.00 | 40 | 1008.1 |
| 20260505050130 | 65 | 27 | 7.0 | 13.9 | 0.00 | 0.00 | 0.00 | 40 | 1008.0 |
| 20260505041631 | 66 | 27 | 4.3 | 7.8 | 0.00 | 0.00 | 0.00 | 37 | 1007.7 |
| 20260505041135 | 66 | 27 | 3.5 | 7.8 | 0.00 | 0.00 | 0.00 | 36 | 1007.6 |
| 20260505040700 | 65 | 27 | 4.3 | 7.8 | 0.00 | 0.00 | 0.00 | 36 | 1007.4 |
| 20260505040143 | 65 | 27 | 2.6 | 4.3 | 0.00 | 0.00 | 0.00 | 36 | 1007.3 |
| 20260505035627 | 65 | 27 | 2.6 | 4.3 | 0.00 | 0.00 | 0.00 | 36 | 1007.3 |
| 20260505035131 | 65 | 27 | 1.7 | 3.5 | 0.00 | 0.00 | 0.00 | 37 | 1007.2 |
| 20260505034655 | 66 | 27 | 1.7 | 3.5 | 0.00 | 0.00 | 0.00 | 36 | 1007.0 |
| 20260505034122 | 66 | 27 | 1.7 | 4.3 | 0.00 | 0.00 | 0.00 | 36 | 1006.9 |
| 20260505033627 | 66 | 27 | 3.5 | 5.2 | 0.00 | 0.00 | 0.00 | 37 | 1006.9 |
| 20260505033131 | 66 | 27 | 1.7 | 7.0 | 0.00 | 0.00 | 0.00 | 37 | 1006.8 |
| 20260505032656 | 67 | 27 | 3.5 | 7.8 | 0.00 | 0.00 | 0.00 | 37 | 1006.7 |
| 20260505032139 | 67 | 27 | 5.2 | 7.8 | 0.00 | 0.00 | 0.00 | 36 | 1006.6 |
| 20260505031623 | 67 | 27 | 4.3 | 7.8 | 0.00 | 0.00 | 0.00 | 34 | 1006.5 |
| 20260505031127 | 67 | 27 | 2.6 | 4.3 | 0.00 | 0.00 | 0.00 | 33 | 1006.3 |
| 20260505030632 | 67 | 27 | 1.7 | 4.3 | 0.00 | 0.00 | 0.00 | 34 | 1006.1 |
| 20260505030136 | 67 | 27 | 2.6 | 3.5 | 0.00 | 0.00 | 0.00 | 33 | 1006.1 |
| 20260505025621 | 68 | 27 | 2.6 | 3.5 | 0.00 | 0.00 | 0.00 | 32 | 1006.1 |
| 20260505025125 | 68 | 27 | 2.6 | 4.3 | 0.00 | 0.00 | 0.00 | 32 | 1006.0 |
| 20260505024629 | 68 | 27 | 2.6 | 4.3 | 0.00 | 0.00 | 0.00 | 32 | 1006.0 |
| 20260505024138 | 69 | 27 | 3.5 | 4.3 | 0.00 | 0.00 | 0.00 | 32 | 1005.9 |
| 20260505023622 | 69 | 27 | 2.6 | 4.3 | 0.00 | 0.00 | 0.00 | 33 | 1005.9 |
| 20260505023126 | 69 | 27 | 2.6 | 4.3 | 0.00 | 0.00 | 0.00 | 33 | 1005.8 |
| 20260505022631 | 69 | 27 | 3.5 | 5.2 | 0.00 | 0.00 | 0.00 | 33 | 1005.8 |
| 20260505022135 | 69 | 27 | 3.5 | 5.2 | 0.00 | 0.00 | 0.00 | 34 | 1005.8 |
| 20260505021639 | 69 | 27 | 3.5 | 4.3 | 0.00 | 0.00 | 0.00 | 34 | 1005.8 |
| 20260505021124 | 70 | 27 | 3.5 | 4.3 | 0.00 | 0.00 | 0.00 | 33 | 1005.8 |
| 20260505020627 | 70 | 27 | 2.6 | 5.2 | 0.00 | 0.00 | 0.00 | 32 | 1005.8 |
| 20260505020152 | 71 | 27 | 2.6 | 5.2 | 0.00 | 0.00 | 0.00 | 31 | 1005.6 |
| 20260505015636 | 71 | 27 | 2.6 | 4.3 | 0.00 | 0.00 | 0.00 | 31 | 1005.6 |
| 20260505015120 | 71 | 27 | 2.6 | 4.3 | 0.00 | 0.00 | 0.00 | 29 | 1005.6 |
| 20260505014628 | 72 | 27 | 2.6 | 5.2 | 0.00 | 0.00 | 0.00 | 29 | 1005.6 |
| 20260505014133 | 72 | 27 | 2.6 | 4.3 | 0.00 | 0.00 | 0.00 | 28 | 1005.6 |
| 20260505013637 | 72 | 27 | 2.6 | 4.3 | 0.00 | 0.00 | 0.00 | 27 | 1005.7 |
| 20260505013141 | 72 | 27 | 2.6 | 4.3 | 0.00 | 0.00 | 0.00 | 27 | 1005.6 |
| 20260505012645 | 72 | 27 | 2.6 | 5.2 | 0.00 | 0.00 | 0.00 | 27 | 1005.7 |
| 20260505012128 | 73 | 27 | 3.5 | 7.0 | 0.00 | 0.00 | 0.00 | 28 | 1005.7 |
| 20260505011632 | 73 | 27 | 3.5 | 5.2 | 0.00 | 0.00 | 0.00 | 27 | 1005.7 |
| 20260505011137 | 73 | 27 | 3.5 | 6.1 | 0.00 | 0.00 | 0.00 | 27 | 1005.8 |
| 20260505010621 | 73 | 27 | 2.6 | 7.0 | 0.00 | 0.00 | 0.00 | 27 | 1005.9 |
| 20260505010126 | 72 | 27 | 3.5 | 7.0 | 0.00 | 0.00 | 0.00 | 28 | 1005.9 |
| 20260505005630 | 72 | 27 | 4.3 | 7.0 | 0.00 | 0.00 | 0.00 | 27 | 1005.9 |
| 20260505005134 | 72 | 27 | 3.5 | 7.0 | 0.00 | 0.00 | 0.00 | 27 | 1005.9 |
| 20260505004622 | 73 | 27 | 4.3 | 7.0 | 0.00 | 0.00 | 0.00 | 27 | 1005.9 |
| 20260505004127 | 73 | 27 | 3.5 | 8.7 | 0.00 | 0.00 | 0.00 | 27 | 1006.0 |
| 20260505003631 | 73 | 27 | 4.3 | 8.7 | 0.00 | 0.00 | 0.00 | 27 | 1006.1 |
| 20260505003136 | 74 | 27 | 5.2 | 7.8 | 0.00 | 0.00 | 0.00 | 27 | 1006.1 |
| 20260505002640 | 74 | 27 | 3.5 | 9.6 | 0.00 | 0.00 | 0.00 | 25 | 1006.2 |
| 20260505002124 | 75 | 27 | 4.3 | 9.6 | 0.00 | 0.00 | 0.00 | 26 | 1006.2 |
| 20260505001648 | 75 | 27 | 2.6 | 9.6 | 0.00 | 0.00 | 0.00 | 26 | 1006.2 |
| 20260505001132 | 75 | 27 | 3.5 | 9.6 | 0.00 | 0.00 | 0.00 | 25 | 1006.2 |
| 20260505000636 | 75 | 27 | 6.1 | 11.3 | 0.00 | 0.00 | 0.00 | 25 | 1006.3 |
| 20260505000121 | 75 | 27 | 7.8 | 11.3 | 0.00 | 0.00 | 0.00 | 25 | 1006.3 |
| 20260504235625 | 75 | 27 | 5.2 | 11.3 | 0.00 | 0.00 | 0.00 | 26 | 1006.3 |
| 20260504235130 | 75 | 27 | 5.2 | 9.6 | 0.00 | 0.00 | 0.00 | 26 | 1006.4 |
| 20260504234638 | 74 | 27 | 2.6 | 15.6 | 0.00 | 0.00 | 0.00 | 27 | 1006.4 |
| 20260504234122 | 74 | 27 | 7.8 | 15.6 | 0.00 | 0.00 | 0.00 | 27 | 1006.3 |
| 20260504233626 | 74 | 27 | 5.2 | 13.0 | 0.00 | 0.00 | 0.00 | 28 | 1006.4 |
| 20260504233131 | 73 | 27 | 7.8 | 13.0 | 0.00 | 0.00 | 0.00 | 28 | 1006.4 |
| 20260504232635 | 73 | 27 | 7.8 | 13.9 | 0.00 | 0.00 | 0.00 | 28 | 1006.4 |
| 20260504232120 | 73 | 27 | 6.1 | 14.8 | 0.00 | 0.00 | 0.00 | 28 | 1006.5 |
| 20260504231644 | 74 | 27 | 8.7 | 14.8 | 0.00 | 0.00 | 0.00 | 27 | 1006.6 |
| 20260504231128 | 74 | 27 | 10.4 | 14.8 | 0.00 | 0.00 | 0.00 | 27 | 1006.6 |
| 20260504230652 | 76 | 27 | 7.8 | 13.9 | 0.00 | 0.00 | 0.00 | 27 | 1006.6 |
| 20260504230155 | 75 | 27 | 4.3 | 8.7 | 0.00 | 0.00 | 0.00 | 25 | 1006.6 |
| 20260504225638 | 75 | 27 | 3.5 | 10.4 | 0.00 | 0.00 | 0.00 | 25 | 1006.6 |
| 20260504225123 | 75 | 27 | 5.2 | 11.3 | 0.00 | 0.00 | 0.00 | 25 | 1006.6 |
| 20260504224627 | 75 | 27 | 7.0 | 12.2 | 0.00 | 0.00 | 0.00 | 26 | 1006.5 |
| 20260504224136 | 74 | 27 | 6.1 | 15.6 | 0.00 | 0.00 | 0.00 | 26 | 1006.5 |
| 20260504223640 | 74 | 27 | 8.7 | 15.6 | 0.00 | 0.00 | 0.00 | 27 | 1006.5 |
| 20260504223124 | 74 | 27 | 8.7 | 15.6 | 0.00 | 0.00 | 0.00 | 28 | 1006.5 |
| 20260504222628 | 74 | 27 | 10.4 | 16.5 | 0.00 | 0.00 | 0.00 | 27 | 1006.4 |
| 20260504222133 | 74 | 27 | 8.7 | 16.5 | 0.00 | 0.00 | 0.00 | 27 | 1006.4 |
| 20260504221657 | 74 | 27 | 8.7 | 17.4 | 0.00 | 0.00 | 0.00 | 26 | 1006.4 |
| 20260504221121 | 75 | 27 | 8.7 | 13.0 | 0.00 | 0.00 | 0.00 | 26 | 1006.4 |
| 20260504220624 | 76 | 27 | 7.0 | 13.0 | 0.00 | 0.00 | 0.00 | 22 | 1006.4 |
| 20260504220149 | 75 | 27 | 2.6 | 12.2 | 0.00 | 0.00 | 0.00 | 22 | 1006.4 |
| 20260504215633 | 76 | 27 | 7.8 | 12.2 | 0.00 | 0.00 | 0.00 | 23 | 1006.4 |
| 20260504215157 | 76 | 27 | 5.2 | 11.3 | 0.00 | 0.00 | 0.00 | 23 | 1006.4 |
| 20260504214620 | 76 | 27 | 7.0 | 11.3 | 0.00 | 0.00 | 0.00 | 23 | 1006.5 |
| 20260504214125 | 76 | 27 | 6.1 | 9.6 | 0.00 | 0.00 | 0.00 | 23 | 1006.6 |
| 20260504213649 | 76 | 27 | 5.2 | 11.3 | 0.00 | 0.00 | 0.00 | 23 | 1006.7 |
| 20260504213137 | 76 | 27 | 5.2 | 12.2 | 0.00 | 0.00 | 0.00 | 24 | 1006.8 |
| 20260504212701 | 75 | 27 | 6.1 | 12.2 | 0.00 | 0.00 | 0.00 | 25 | 1006.9 |
| 20260504212125 | 75 | 27 | 4.3 | 12.2 | 0.00 | 0.00 | 0.00 | 25 | 1006.7 |
| 20260504211629 | 76 | 27 | 8.7 | 12.2 | 0.00 | 0.00 | 0.00 | 25 | 1006.7 |
| 20260504211133 | 76 | 27 | 5.2 | 9.6 | 0.00 | 0.00 | 0.00 | 24 | 1006.7 |
| 20260504210637 | 76 | 27 | 4.3 | 11.3 | 0.00 | 0.00 | 0.00 | 23 | 1006.8 |
| 20260504210122 | 75 | 27 | 4.3 | 11.3 | 0.00 | 0.00 | 0.00 | 24 | 1006.9 |
| 20260504205626 | 76 | 27 | 5.2 | 10.4 | 0.00 | 0.00 | 0.00 | 22 | 1006.9 |
| 20260504205131 | 77 | 27 | 3.5 | 8.7 | 0.00 | 0.00 | 0.00 | 23 | 1006.9 |
| 20260504204634 | 75 | 27 | 3.5 | 8.7 | 0.00 | 0.00 | 0.00 | 24 | 1007.0 |
| 20260504204139 | 75 | 27 | 5.2 | 7.8 | 0.00 | 0.00 | 0.00 | 23 | 1007.1 |
| 20260504203627 | 77 | 27 | 3.5 | 8.7 | 0.00 | 0.00 | 0.00 | 23 | 1007.2 |
| 20260504203131 | 76 | 27 | 4.3 | 9.6 | 0.00 | 0.00 | 0.00 | 23 | 1007.2 |
| 20260504202636 | 76 | 27 | 6.1 | 12.2 | 0.00 | 0.00 | 0.00 | 23 | 1007.3 |
| 20260504202140 | 75 | 27 | 5.2 | 12.2 | 0.00 | 0.00 | 0.00 | 23 | 1007.3 |
| 20260504201624 | 76 | 27 | 7.0 | 12.2 | 0.00 | 0.00 | 0.00 | 24 | 1007.3 |
| 20260504201129 | 76 | 27 | 6.1 | 9.6 | 0.00 | 0.00 | 0.00 | 24 | 1007.4 |
| 20260504200633 | 75 | 27 | 5.2 | 9.6 | 0.00 | 0.00 | 0.00 | 25 | 1007.4 |
| 20260504200137 | 76 | 27 | 4.3 | 11.3 | 0.00 | 0.00 | 0.00 | 24 | 1007.4 |
| 20260504195622 | 76 | 27 | 6.1 | 8.7 | 0.00 | 0.00 | 0.00 | 25 | 1007.4 |
| 20260504195126 | 76 | 27 | 2.6 | 7.8 | 0.00 | 0.00 | 0.00 | 25 | 1007.5 |
| 20260504194631 | 77 | 27 | 2.6 | 6.1 | 0.00 | 0.00 | 0.00 | 24 | 1007.6 |
| 20260504194139 | 76 | 27 | 2.6 | 10.4 | 0.00 | 0.00 | 0.00 | 25 | 1007.6 |
| 20260504193623 | 74 | 27 | 2.6 | 10.4 | 0.00 | 0.00 | 0.00 | 25 | 1007.8 |
| 20260504193127 | 74 | 27 | 4.3 | 7.8 | 0.00 | 0.00 | 0.00 | 25 | 1007.9 |
| 20260504192632 | 75 | 27 | 4.3 | 7.8 | 0.00 | 0.00 | 0.00 | 24 | 1007.9 |
| 20260504192137 | 76 | 27 | 2.6 | 5.2 | 0.00 | 0.00 | 0.00 | 24 | 1007.9 |
| 20260504191641 | 75 | 27 | 1.7 | 7.8 | 0.00 | 0.00 | 0.00 | 25 | 1008.1 |
| 20260504191124 | 75 | 27 | 3.5 | 7.8 | 0.00 | 0.00 | 0.00 | 25 | 1008.1 |
| 20260504190629 | 75 | 27 | 3.5 | 7.8 | 0.00 | 0.00 | 0.00 | 25 | 1008.2 |
| 20260504190132 | 74 | 27 | 3.5 | 9.6 | 0.00 | 0.00 | 0.00 | 25 | 1008.2 |
| 20260504185637 | 74 | 27 | 6.1 | 9.6 | 0.00 | 0.00 | 0.00 | 25 | 1008.4 |
| 20260504185121 | 73 | 27 | 2.6 | 10.4 | 0.00 | 0.00 | 0.00 | 26 | 1008.4 |
| 20260504184630 | 74 | 27 | 4.3 | 8.7 | 0.00 | 0.00 | 0.00 | 26 | 1008.4 |
| 20260504184134 | 73 | 27 | 2.6 | 7.0 | 0.00 | 0.00 | 0.00 | 27 | 1008.4 |
| 20260504183659 | 73 | 27 | 4.3 | 8.7 | 0.00 | 0.00 | 0.00 | 26 | 1008.6 |
| 20260504183121 | 75 | 27 | 2.6 | 7.8 | 0.00 | 0.00 | 0.00 | 26 | 1008.6 |
| 20260504182626 | 76 | 27 | 2.6 | 7.0 | 0.00 | 0.00 | 0.00 | 25 | 1008.7 |
| 20260504182130 | 75 | 27 | 1.7 | 7.0 | 0.00 | 0.00 | 0.00 | 25 | 1008.8 |
| 20260504181635 | 75 | 27 | 2.6 | 4.3 | 0.00 | 0.00 | 0.00 | 25 | 1008.9 |
| 20260504181139 | 74 | 27 | 1.7 | 7.0 | 0.00 | 0.00 | 0.00 | 26 | 1009.0 |
| 20260504180644 | 74 | 27 | 4.3 | 7.8 | 0.00 | 0.00 | 0.00 | 27 | 1009.1 |
| 20260504180127 | 73 | 27 | 5.2 | 7.8 | 0.00 | 0.00 | 0.00 | 28 | 1009.2 |
| 20260504175651 | 73 | 27 | 3.5 | 7.0 | 0.00 | 0.00 | 0.00 | 27 | 1009.1 |
| 20260504175134 | 74 | 27 | 2.6 | 7.0 | 0.00 | 0.00 | 0.00 | 27 | 1009.1 |
| 20260504174640 | 74 | 27 | 3.5 | 7.0 | 0.00 | 0.00 | 0.00 | 28 | 1009.2 |
| 20260504174143 | 73 | 27 | 2.6 | 7.0 | 0.00 | 0.00 | 0.00 | 28 | 1009.2 |
| 20260504173631 | 73 | 27 | 3.5 | 8.7 | 0.00 | 0.00 | 0.00 | 28 | 1009.2 |
| 20260504173135 | 73 | 27 | 2.6 | 9.6 | 0.00 | 0.00 | 0.00 | 29 | 1009.2 |
| 20260504172640 | 73 | 27 | 3.5 | 9.6 | 0.00 | 0.00 | 0.00 | 29 | 1009.3 |
| 20260504172123 | 72 | 27 | 3.5 | 7.0 | 0.00 | 0.00 | 0.00 | 29 | 1009.3 |
| 20260504171628 | 72 | 27 | 5.2 | 7.0 | 0.00 | 0.00 | 0.00 | 29 | 1009.3 |
| 20260504171132 | 72 | 27 | 2.6 | 8.7 | 0.00 | 0.00 | 0.00 | 31 | 1009.3 |
| 20260504170637 | 72 | 27 | 4.3 | 8.7 | 0.00 | 0.00 | 0.00 | 31 | 1009.4 |
| 20260504170121 | 71 | 27 | 4.3 | 7.0 | 0.00 | 0.00 | 0.00 | 31 | 1009.5 |
| 20260504160137 | 70 | 27 | 1.7 | 4.3 | 0.00 | 0.00 | 0.00 | 33 | 1009.6 |
| 20260504151123 | 65 | 27 | 2.6 | 5.2 | 0.00 | 0.00 | 0.00 | 39 | 1009.9 |
| 20260504150627 | 65 | 27 | 2.6 | 5.2 | 0.00 | 0.00 | 0.00 | 40 | 1010.1 |
| 20260504150132 | 65 | 27 | 2.6 | 4.3 | 0.00 | 0.00 | 0.00 | 40 | 1009.9 |
| 20260504141134 | 63 | 27 | 0.9 | 1.7 | 0.00 | 0.00 | 0.00 | 41 | 1009.9 |
| 20260504140658 | 62 | 27 | 0.9 | 1.7 | 0.00 | 0.00 | 0.00 | 42 | 1009.9 |
| 20260504140142 | 61 | 27 | 0.9 | 1.7 | 0.00 | 0.00 | 0.00 | 41 | 1009.9 |
| 20260504130627 | 59 | 27 | 1.7 | 5.2 | 0.00 | 0.00 | 0.00 | 43 | 1010.0 |
| 20260504130126 | 58 | 27 | 1.7 | 2.6 | 0.00 | 0.00 | 0.00 | 43 | 1010.0 |
| 20260504120140 | 58 | 27 | 0.9 | 3.5 | 0.00 | 0.00 | 0.00 | 39 | 1010.0 |
| 20260504110631 | 59 | 27 | 0.9 | 3.5 | 0.00 | 0.00 | 0.00 | 40 | 1010.1 |
| 20260504110135 | 59 | 27 | 1.7 | 2.6 | 0.00 | 0.00 | 0.00 | 38 | 1010.0 |
| 20260504100129 | 57 | 27 | 1.7 | 5.2 | 0.00 | 0.00 | 0.00 | 46 | 1009.6 |
| 20260504090123 | 58 | 27 | 1.7 | 7.8 | 0.00 | 0.00 | 0.00 | 48 | 1009.6 |
| 20260504081624 | 58 | 27 | 0.0 | 3.5 | 0.00 | 0.00 | 0.00 | 39 | 1008.7 |
| 20260504081127 | 58 | 27 | 2.6 | 3.5 | 0.00 | 0.00 | 0.00 | 39 | 1008.7 |
| 20260504080652 | 58 | 27 | 2.6 | 3.5 | 0.00 | 0.00 | 0.00 | 39 | 1008.7 |
| 20260504080135 | 59 | 27 | 0.9 | 3.5 | 0.00 | 0.00 | 0.00 | 39 | 1008.8 |
| 20260504070130 | 60 | 27 | 1.7 | 3.5 | 0.00 | 0.00 | 0.00 | 37 | 1009.0 |